Location: Unspecified
(41.1637°N, 24.2901°E)
Time: 13:28:43
(UTC+01:00)

ISS - Pass Details

Date: 04 December 2021
Orbit: 417 x 423 km, 51.6° (Epoch: 29 November)

Event Time Altitude Azimuth Distance (km) Brightness Sun altitude
Rises 16:24:22 0° 309° (NW) 2,379 0.4 -5.9°
Reaches altitude 10° 16:26:53 10° 328° (NNW) 1,513 -0.8 -6.3°
Maximum altitude 16:29:26 19° 17° (NNE) 1,062 -2.1 -6.8°
Drops below altitude 10° 16:31:59 10° 66° (ENE) 1,509 -1.6 -7.2°
Enters shadow 16:32:07 - 67° (ENE) 1,551 -1.6 -7.2°
